Location: Elko Observing site
(32.3606°N, 83.7235°W)
Time: 14:29:33
(UTC-04:00)

N. Korean satellite - Pass Details

Date: 30 March 2019
Orbit: 457 x 508 km, 97.2° (Epoch: 23 April)

Event Time Altitude Azimuth Distance (km) Brightness Sun altitude
Rises 06:47:50 0° 32° (NNE) 2,562 10.9 -8.8°
Reaches altitude 10° 06:50:31 10° 54° (NE) 1,687 10.5 -8.3°
Maximum altitude 06:52:53 16° 95° (E) 1,337 10.1 -7.8°
Drops below altitude 10° 06:55:15 10° 136° (SE) 1,695 9.8 -7.3°
Sets 06:57:56 0° 158° (SSE) 2,582 10.4 -6.7°
